{"data":{"norad_id":64844,"intl_designator":"2025-152C","name":"STARLINK-34709","alt_names":[],"object_type":"PAYLOAD","status":"ACTIVE","operator":null,"country":"US","launch_date":"2025-07-19","launch_site_code":"AFWTR","launch_vehicle":null,"mission":null,"orbit_class":"UNKNOWN","rcs_meters":null,"size_class":null,"mass_kg":null,"dimensions":null,"purposes":["comms"],"wikipedia_slug":null,"has_3d_model":false,"image_url":null,"decayed_at":null,"tle_current":{"epoch":"2026-05-25T02:32:25.508256Z","epoch_age_seconds":61805,"freshness":"FRESH","line1":"1 64844U 25152C   26145.10585079  .00002546  00000+0  18039-3 0  9994","line2":"2 64844  97.4511   0.4161 0002052  87.8930 272.2532 15.05657001 46914","mean_motion":15.05657001,"eccentricity":0.0002052,"inclination_deg":97.4511,"raan_deg":0.4161,"arg_perigee_deg":87.893,"mean_anomaly_deg":272.2532,"bstar":0.00018039,"rev_number":4691,"period_min":95.639312210125,"perigee_km":548.06813025433,"apogee_km":550.91122824349,"semimajor_km":6927.6266792489,"source":"CELESTRAK","updated_at":"2026-05-25T13:38:20.611236Z"}}}